Location: Passo di Treia
(43.2833°N, 13.3333°E)
Time: 08:40:59
(UTC+00:00)

FALCON 9 DEB - Pass Details

Date: 09 December 2019
Orbit: 431 x 443 km, 53.0° (Epoch: 19 January)

Event Time Altitude Azimuth Distance (km) Brightness Sun altitude
Rises 17:27:35 0° 238° (WSW) 2,420 8.2 -20.5°
Reaches altitude 10° 17:29:42 10° 240° (WSW) 1,552 7.0 -20.8°
Enters shadow 17:33:04 72° 306° (NW) 466 3.2 -21.4°
